{"data":{"norad_id":51973,"epoch":"2026-05-25T02:12:20.179008Z","epoch_age_seconds":66511,"freshness":"FRESH","line1":"1 51973U 22025T   26145.09190022  .00000384  00000+0  24154-4 0  9991","line2":"2 51973  53.1610  41.6122 0001377  94.3966 265.7193 15.31702139232534","mean_motion":15.31702139,"eccentricity":0.0001377,"inclination_deg":53.161,"raan_deg":41.6122,"arg_perigee_deg":94.3966,"mean_anomaly_deg":265.7193,"bstar":2.4154e-5,"rev_number":23253,"period_min":94.013056673025,"perigee_km":469.79052950114,"apogee_km":471.67670846961,"semimajor_km":6848.8706189854,"source":"CELESTRAK","updated_at":"2026-05-25T13:38:16.994182Z"}}